Time,TemperatureF,DewpointF,PressureIn,WindDirection,WindDirectionDegrees,WindSpeedMPH,WindSpeedGustMPH,Humidity,HourlyPrecipIn,Conditions,Clouds,dailyrainin,SoftwareType,DateUTC
2013-08-23 00:04:00,-999.0,-99.9,30.09,WNW,293,0.0,-999.0,-999,-99.99,,,-99.99,,2013-08-23 04:04:00,
2013-08-23 00:13:00,-999.0,-99.9,30.08,WNW,293,0.0,-999.0,-999,-99.99,,,-99.99,,2013-08-23 04:13:00,
2013-08-23 00:24:00,-999.0,-99.9,30.08,WNW,293,0.0,-999.0,-999,-99.99,,,-99.99,,2013-08-23 04:24:00,
2013-08-23 00:34:00,-999.0,-99.9,30.09,WNW,293,0.0,-999.0,-999,-99.99,,,-99.99,,2013-08-23 04:34:00,
2013-08-23 00:43:00,-999.0,-99.9,30.09,WNW,293,0.0,-999.0,-999,-99.99,,,-99.99,,2013-08-23 04:43:00,
2013-08-23 00:54:00,-999.0,-99.9,30.09,WNW,293,0.0,-999.0,-999,-99.99,,,-99.99,,2013-08-23 04:54:00,
2013-08-23 01:04:00,-999.0,-99.9,30.08,WNW,293,0.0,-999.0,-999,-99.99,,,-99.99,,2013-08-23 05:04:00,
2013-08-23 01:13:00,-999.0,-99.9,30.08,WNW,293,0.0,-999.0,-999,-99.99,,,-99.99,,2013-08-23 05:13:00,
2013-08-23 01:22:00,-999.0,-99.9,30.08,WNW,293,0.0,-999.0,-999,-99.99,,,-99.99,,2013-08-23 05:22:00,
2013-08-23 01:34:00,-999.0,-99.9,30.07,WNW,293,0.0,-999.0,-999,-99.99,,,-99.99,,2013-08-23 05:34:00,
2013-08-23 01:42:00,-999.0,-99.9,30.06,WNW,293,0.0,-999.0,-999,-99.99,,,-99.99,,2013-08-23 05:42:00,
2013-08-23 01:53:00,-999.0,-99.9,30.06,WNW,293,0.0,-999.0,-999,-99.99,,,-99.99,,2013-08-23 05:53:00,
2013-08-23 02:02:00,-999.0,-99.9,30.06,WNW,293,0.0,-999.0,-999,-99.99,,,-99.99,,2013-08-23 06:02:00,
2013-08-23 02:12:00,-999.0,-99.9,30.06,WNW,293,0.0,-999.0,-999,-99.99,,,-99.99,,2013-08-23 06:12:00,
2013-08-23 02:22:00,-999.0,-99.9,30.06,WNW,293,0.0,-999.0,-999,-99.99,,,-99.99,,2013-08-23 06:22:00,
2013-08-23 02:32:00,-999.0,-99.9,30.06,WNW,293,0.0,-999.0,-999,-99.99,,,-99.99,,2013-08-23 06:32:00,
2013-08-23 02:42:00,-999.0,-99.9,30.06,WNW,293,0.0,-999.0,-999,-99.99,,,-99.99,,2013-08-23 06:42:00,
2013-08-23 02:52:00,-999.0,-99.9,30.05,WNW,293,0.0,-999.0,-999,-99.99,,,-99.99,,2013-08-23 06:52:00,
2013-08-23 03:01:00,-999.0,-99.9,30.05,WNW,293,0.0,-999.0,-999,-99.99,,,-99.99,,2013-08-23 07:01:00,
2013-08-23 03:12:00,-999.0,-99.9,30.05,WNW,293,0.0,-999.0,-999,-99.99,,,-99.99,,2013-08-23 07:12:00,
2013-08-23 03:22:00,-999.0,-99.9,30.05,WNW,293,0.0,-999.0,-999,-99.99,,,-99.99,,2013-08-23 07:22:00,
2013-08-23 03:32:00,-999.0,-99.9,30.05,WNW,293,0.0,-999.0,-999,-99.99,,,-99.99,,2013-08-23 07:32:00,
2013-08-23 03:42:00,-999.0,-99.9,30.05,WNW,293,0.0,-999.0,-999,-99.99,,,-99.99,,2013-08-23 07:42:00,
2013-08-23 03:53:00,-999.0,-99.9,30.05,WNW,293,0.0,-999.0,-999,-99.99,,,-99.99,,2013-08-23 07:53:00,
2013-08-23 04:02:00,-999.0,-99.9,30.05,WNW,293,0.0,-999.0,-999,-99.99,,,-99.99,,2013-08-23 08:02:00,
2013-08-23 04:13:00,-999.0,-99.9,30.04,WNW,293,0.0,-999.0,-999,-99.99,,,-99.99,,2013-08-23 08:13:00,
2013-08-23 04:22:00,-999.0,-99.9,30.04,WNW,293,0.0,-999.0,-999,-99.99,,,-99.99,,2013-08-23 08:22:00,
2013-08-23 04:32:00,-999.0,-99.9,30.05,WNW,293,0.0,-999.0,-999,-99.99,,,-99.99,,2013-08-23 08:32:00,
2013-08-23 04:42:00,-999.0,-99.9,30.05,WNW,293,0.0,-999.0,-999,-99.99,,,-99.99,,2013-08-23 08:42:00,
2013-08-23 04:52:00,-999.0,-99.9,30.05,WNW,293,0.0,-999.0,-999,-99.99,,,-99.99,,2013-08-23 08:52:00,
2013-08-23 05:01:00,-999.0,-99.9,30.05,WNW,293,0.0,-999.0,-999,-99.99,,,-99.99,,2013-08-23 09:01:00,
2013-08-23 05:12:00,-999.0,-99.9,30.06,WNW,293,0.0,-999.0,-999,-99.99,,,-99.99,,2013-08-23 09:12:00,
2013-08-23 05:21:00,-999.0,-99.9,30.06,WNW,293,0.0,-999.0,-999,-99.99,,,-99.99,,2013-08-23 09:21:00,
2013-08-23 05:33:00,-999.0,-99.9,30.06,WNW,293,0.0,-999.0,-999,-99.99,,,-99.99,,2013-08-23 09:33:00,
2013-08-23 05:43:00,-999.0,-99.9,30.06,WNW,293,0.0,-999.0,-999,-99.99,,,-99.99,,2013-08-23 09:43:00,
2013-08-23 05:53:00,-999.0,-99.9,30.06,WNW,293,0.0,-999.0,-999,-99.99,,,-99.99,,2013-08-23 09:53:00,
2013-08-23 06:03:00,-999.0,-99.9,30.06,WNW,293,0.0,-999.0,-999,-99.99,,,-99.99,,2013-08-23 10:03:00,
2013-08-23 06:13:00,-999.0,-99.9,30.06,WNW,293,0.0,-999.0,-999,-99.99,,,-99.99,,2013-08-23 10:13:00,
2013-08-23 06:23:00,-999.0,-99.9,30.06,WNW,293,0.0,-999.0,-999,-99.99,,,-99.99,,2013-08-23 10:23:00,
2013-08-23 06:33:00,-999.0,-99.9,30.06,WNW,293,0.0,-999.0,-999,-99.99,,,-99.99,,2013-08-23 10:33:00,
2013-08-23 06:42:00,-999.0,-99.9,30.06,WNW,293,0.0,-999.0,-999,-99.99,,,-99.99,,2013-08-23 10:42:00,
2013-08-23 06:53:00,-999.0,-99.9,30.06,WNW,293,0.0,-999.0,-999,-99.99,,,-99.99,,2013-08-23 10:53:00,
2013-08-23 07:02:00,-999.0,-99.9,30.07,WNW,293,0.0,-999.0,-999,-99.99,,,-99.99,,2013-08-23 11:02:00,
2013-08-23 07:11:00,-999.0,-99.9,30.07,WNW,293,0.0,-999.0,-999,-99.99,,,-99.99,,2013-08-23 11:11:00,
2013-08-23 07:22:00,-999.0,-99.9,30.07,WNW,293,0.0,-999.0,-999,-99.99,,,-99.99,,2013-08-23 11:22:00,
2013-08-23 07:33:00,-999.0,-99.9,30.08,WNW,293,0.0,-999.0,-999,-99.99,,,-99.99,,2013-08-23 11:33:00,
2013-08-23 07:42:00,-999.0,-99.9,30.09,WNW,293,0.0,-999.0,-999,-99.99,,,-99.99,,2013-08-23 11:42:00,
2013-08-23 07:53:00,-999.0,-99.9,30.09,WNW,293,0.0,-999.0,-999,-99.99,,,-99.99,,2013-08-23 11:53:00,
2013-08-23 08:02:00,-999.0,-99.9,30.08,WNW,293,0.0,-999.0,-999,-99.99,,,-99.99,,2013-08-23 12:02:00,
2013-08-23 08:11:00,-999.0,-99.9,30.08,WNW,293,0.0,-999.0,-999,-99.99,,,-99.99,,2013-08-23 12:11:00,
2013-08-23 08:22:00,-999.0,-99.9,30.09,WNW,293,0.0,-999.0,-999,-99.99,,,-99.99,,2013-08-23 12:22:00,
2013-08-23 08:32:00,-999.0,-99.9,30.09,WNW,293,0.0,-999.0,-999,-99.99,,,-99.99,,2013-08-23 12:32:00,
2013-08-23 08:42:00,-999.0,-99.9,30.09,WNW,293,0.0,-999.0,-999,-99.99,,,-99.99,,2013-08-23 12:42:00,
2013-08-23 08:52:00,-999.0,-99.9,30.10,WNW,293,0.0,-999.0,-999,-99.99,,,-99.99,,2013-08-23 12:52:00,
2013-08-23 09:02:00,-999.0,-99.9,30.10,WNW,293,0.0,-999.0,-999,-99.99,,,-99.99,,2013-08-23 13:02:00,
2013-08-23 09:12:00,-999.0,-99.9,30.10,WNW,293,0.0,-999.0,-999,-99.99,,,-99.99,,2013-08-23 13:12:00,
2013-08-23 09:22:00,-999.0,-99.9,30.10,WNW,293,0.0,-999.0,-999,-99.99,,,-99.99,,2013-08-23 13:22:00,
2013-08-23 09:32:00,-999.0,-99.9,30.09,WNW,293,0.0,-999.0,-999,-99.99,,,-99.99,,2013-08-23 13:32:00,
2013-08-23 09:42:00,-999.0,-99.9,30.09,WNW,293,0.0,-999.0,-999,-99.99,,,-99.99,,2013-08-23 13:42:00,
2013-08-23 09:53:00,-999.0,-99.9,30.09,WNW,293,0.0,-999.0,-999,-99.99,,,-99.99,,2013-08-23 13:53:00,
2013-08-23 10:02:00,-999.0,-99.9,30.09,WNW,293,0.0,-999.0,-999,-99.99,,,-99.99,,2013-08-23 14:02:00,
2013-08-23 10:12:00,-999.0,-99.9,30.09,WNW,293,0.0,-999.0,-999,-99.99,,,-99.99,,2013-08-23 14:12:00,
2013-08-23 10:22:00,-999.0,-99.9,30.10,WNW,293,0.0,-999.0,-999,-99.99,,,-99.99,,2013-08-23 14:22:00,
2013-08-23 10:32:00,-999.0,-99.9,30.11,WNW,293,0.0,-999.0,-999,-99.99,,,-99.99,,2013-08-23 14:32:00,
2013-08-23 10:42:00,-999.0,-99.9,30.08,West,268,1.0,-999.0,-999,-99.99,,,-99.99,,2013-08-23 14:42:00,
2013-08-23 10:52:00,-999.0,-99.9,30.08,West,268,1.0,-999.0,-999,-99.99,,,-99.99,,2013-08-23 14:52:00,
2013-08-23 11:02:00,-999.0,-99.9,30.09,West,262,0.0,-999.0,-999,-99.99,,,-99.99,,2013-08-23 15:02:00,
2013-08-23 11:11:00,-999.0,-99.9,30.09,West,263,0.0,-999.0,-999,-99.99,,,-99.99,,2013-08-23 15:11:00,
2013-08-23 11:22:00,-999.0,-99.9,30.09,West,263,0.0,-999.0,-999,-99.99,,,-99.99,,2013-08-23 15:22:00,
2013-08-23 11:33:00,-999.0,-99.9,30.09,West,263,0.0,-999.0,-999,-99.99,,,-99.99,,2013-08-23 15:33:00,
2013-08-23 11:44:00,-999.0,-99.9,30.09,West,263,0.0,-999.0,-999,-99.99,,,-99.99,,2013-08-23 15:44:00,
2013-08-23 11:54:00,-999.0,-99.9,30.09,West,263,0.0,-999.0,-999,-99.99,,,-99.99,,2013-08-23 15:54:00,
2013-08-23 12:06:00,-999.0,-99.9,30.09,West,262,0.0,-999.0,-999,-99.99,,,-99.99,,2013-08-23 16:06:00,
2013-08-23 12:14:00,-999.0,-99.9,30.09,West,262,0.0,-999.0,-999,-99.99,,,-99.99,,2013-08-23 16:14:00,
2013-08-23 12:24:00,-999.0,-99.9,30.09,West,275,0.0,-999.0,-999,-99.99,,,-99.99,,2013-08-23 16:24:00,
2013-08-23 12:34:00,-999.0,-99.9,30.09,West,275,0.0,-999.0,-999,-99.99,,,-99.99,,2013-08-23 16:34:00,
2013-08-23 12:53:00,86.0,76.0,30.08,WNW,300,0.0,-999.0,72,-99.99,,,-99.99,,2013-08-23 16:53:00,
2013-08-23 13:04:00,-999.0,-99.9,30.06,WNW,302,0.0,-999.0,-999,-99.99,,,-99.99,,2013-08-23 17:04:00,
2013-08-23 13:13:00,-999.0,-99.9,30.06,WNW,302,0.0,-999.0,-999,-99.99,,,-99.99,,2013-08-23 17:13:00,
2013-08-23 13:24:00,-999.0,-99.9,30.06,WNW,302,0.0,-999.0,-999,-99.99,,,-99.99,,2013-08-23 17:24:00,
2013-08-23 13:34:00,-999.0,-99.9,30.06,WNW,302,0.0,-999.0,-999,-99.99,,,-99.99,,2013-08-23 17:34:00,
2013-08-23 13:43:00,-999.0,-99.9,30.06,NNW,344,0.0,-999.0,-999,-99.99,,,-99.99,,2013-08-23 17:43:00,
2013-08-23 13:54:00,-999.0,-99.9,30.06,NNW,344,0.0,-999.0,-999,-99.99,,,-99.99,,2013-08-23 17:54:00,
2013-08-23 14:02:00,-999.0,-99.9,30.06,NNE,17,0.0,-999.0,-999,-99.99,,,-99.99,,2013-08-23 18:02:00,
2013-08-23 14:12:00,-999.0,-99.9,30.06,NNE,23,0.0,-999.0,-999,-99.99,,,-99.99,,2013-08-23 18:12:00,
2013-08-23 14:22:00,-999.0,-99.9,30.06,NNE,23,0.0,-999.0,-999,-99.99,,,-99.99,,2013-08-23 18:22:00,
2013-08-23 14:32:00,-999.0,-99.9,30.05,NNE,22,0.0,-999.0,-999,-99.99,,,-99.99,,2013-08-23 18:32:00,
2013-08-23 14:42:00,-999.0,-99.9,30.04,NNE,22,0.0,-999.0,-999,-99.99,,,-99.99,,2013-08-23 18:42:00,
2013-08-23 14:52:00,-999.0,-99.9,30.04,NNE,22,0.0,-999.0,-999,-99.99,,,-99.99,,2013-08-23 18:52:00,
2013-08-23 15:02:00,-999.0,-99.9,30.03,NNE,22,0.0,-999.0,-999,-99.99,,,-99.99,,2013-08-23 19:02:00,
2013-08-23 15:12:00,-999.0,-99.9,30.03,NNE,22,0.0,-999.0,-999,-99.99,,,-99.99,,2013-08-23 19:12:00,
2013-08-23 15:22:00,-999.0,-99.9,30.03,NNE,22,0.0,-999.0,-999,-99.99,,,-99.99,,2013-08-23 19:22:00,
2013-08-23 15:32:00,-999.0,-99.9,30.02,NNE,23,0.0,-999.0,-999,-99.99,,,-99.99,,2013-08-23 19:32:00,
2013-08-23 15:43:00,-999.0,-99.9,30.02,NNE,23,0.0,-999.0,-999,-99.99,,,-99.99,,2013-08-23 19:43:00,
2013-08-23 15:52:00,-999.0,-99.9,30.01,NNE,23,0.0,-999.0,-999,-99.99,,,-99.99,,2013-08-23 19:52:00,
2013-08-23 16:02:00,-999.0,-99.9,30.01,NNE,23,0.0,-999.0,-999,-99.99,,,-99.99,,2013-08-23 20:02:00,
2013-08-23 16:12:00,-999.0,-99.9,30.01,NNE,23,0.0,-999.0,-999,-99.99,,,-99.99,,2013-08-23 20:12:00,
2013-08-23 16:22:00,-999.0,-99.9,30.00,NNE,23,0.0,-999.0,-999,-99.99,,,-99.99,,2013-08-23 20:22:00,
2013-08-23 16:32:00,-999.0,-99.9,30.00,NNE,23,0.0,-999.0,-999,-99.99,,,-99.99,,2013-08-23 20:32:00,
2013-08-23 16:42:00,-999.0,-99.9,30.00,NNE,15,0.0,-999.0,-999,-99.99,,,-99.99,,2013-08-23 20:42:00,
2013-08-23 16:52:00,-999.0,-99.9,30.00,NNE,15,0.0,-999.0,-999,-99.99,,,-99.99,,2013-08-23 20:52:00,
2013-08-23 17:03:00,-999.0,-99.9,30.01,NNE,13,0.0,-999.0,-999,-99.99,,,-99.99,,2013-08-23 21:03:00,
2013-08-23 17:12:00,-999.0,-99.9,30.01,NNE,13,0.0,-999.0,-999,-99.99,,,-99.99,,2013-08-23 21:12:00,
2013-08-23 17:22:00,-999.0,-99.9,30.01,NNE,13,0.0,-999.0,-999,-99.99,,,-99.99,,2013-08-23 21:22:00,
2013-08-23 17:34:00,-999.0,-99.9,30.01,NNE,15,0.0,-999.0,-999,-99.99,,,-99.99,,2013-08-23 21:34:00,
2013-08-23 17:44:00,-999.0,-99.9,30.02,NE,40,2.0,-999.0,-999,-99.99,,,-99.99,,2013-08-23 21:44:00,
2013-08-23 17:54:00,-999.0,-99.9,30.02,NE,40,2.0,-999.0,-999,-99.99,,,-99.99,,2013-08-23 21:54:00,
2013-08-23 18:04:00,-999.0,-99.9,30.03,NNE,14,4.0,-999.0,-999,-99.99,,,-99.99,,2013-08-23 22:04:00,
2013-08-23 18:13:00,-999.0,-99.9,30.03,North,5,1.0,-999.0,-999,-99.99,,,-99.99,,2013-08-23 22:13:00,
2013-08-23 18:24:00,-999.0,-99.9,30.03,North,5,1.0,-999.0,-999,-99.99,,,-99.99,,2013-08-23 22:24:00,
2013-08-23 18:33:00,-999.0,-99.9,30.03,East,79,0.0,-999.0,-999,-99.99,,,-99.99,,2013-08-23 22:33:00,
2013-08-23 18:43:00,-999.0,-99.9,30.03,East,94,1.0,-999.0,-999,-99.99,,,-99.99,,2013-08-23 22:43:00,
2013-08-23 18:54:00,-999.0,-99.9,30.03,East,94,1.0,-999.0,-999,-99.99,,,-99.99,,2013-08-23 22:54:00,
2013-08-23 19:03:00,-999.0,-99.9,30.03,NE,46,0.0,-999.0,-999,-99.99,,,-99.99,,2013-08-23 23:03:00,
2013-08-23 19:12:00,-999.0,-99.9,30.03,NE,46,0.0,-999.0,-999,-99.99,,,-99.99,,2013-08-23 23:12:00,
2013-08-23 19:22:00,-999.0,-99.9,30.03,NE,46,0.0,-999.0,-999,-99.99,,,-99.99,,2013-08-23 23:22:00,
2013-08-23 19:33:00,-999.0,-99.9,30.03,NE,38,0.0,-999.0,-999,-99.99,,,-99.99,,2013-08-23 23:33:00,
2013-08-23 19:43:00,-999.0,-99.9,30.04,NE,38,0.0,-999.0,-999,-99.99,,,-99.99,,2013-08-23 23:43:00,
2013-08-23 19:54:00,-999.0,-99.9,30.04,NE,38,0.0,-999.0,-999,-99.99,,,-99.99,,2013-08-23 23:54:00,
2013-08-23 20:02:00,-999.0,-99.9,30.04,NE,38,0.0,-999.0,-999,-99.99,,,-99.99,,2013-08-24 00:02:00,
2013-08-23 20:11:00,-999.0,-99.9,30.03,NE,35,0.0,-999.0,-999,-99.99,,,-99.99,,2013-08-24 00:11:00,
2013-08-23 20:22:00,-999.0,-99.9,30.03,NE,35,0.0,-999.0,-999,-99.99,,,-99.99,,2013-08-24 00:22:00,
2013-08-23 20:32:00,-999.0,-99.9,30.04,NE,35,0.0,-999.0,-999,-99.99,,,-99.99,,2013-08-24 00:32:00,
2013-08-23 20:43:00,-999.0,-99.9,30.04,NE,35,0.0,-999.0,-999,-99.99,,,-99.99,,2013-08-24 00:43:00,
2013-08-23 20:53:00,-999.0,-99.9,30.04,NE,35,0.0,-999.0,-999,-99.99,,,-99.99,,2013-08-24 00:53:00,
2013-08-23 21:02:00,-999.0,-99.9,30.04,NE,35,0.0,-999.0,-999,-99.99,,,-99.99,,2013-08-24 01:02:00,
2013-08-23 21:11:00,-999.0,-99.9,30.04,NE,35,0.0,-999.0,-999,-99.99,,,-99.99,,2013-08-24 01:11:00,
2013-08-23 21:22:00,-999.0,-99.9,30.04,NE,35,0.0,-999.0,-999,-99.99,,,-99.99,,2013-08-24 01:22:00,
2013-08-23 21:32:00,-999.0,-99.9,30.04,NE,34,0.0,-999.0,-999,-99.99,,,-99.99,,2013-08-24 01:32:00,
2013-08-23 21:42:00,-999.0,-99.9,30.04,NE,34,0.0,-999.0,-999,-99.99,,,-99.99,,2013-08-24 01:42:00,
2013-08-23 21:53:00,-999.0,-99.9,30.06,NNE,33,0.0,-999.0,-999,-99.99,,,-99.99,,2013-08-24 01:53:00,
2013-08-23 22:03:00,-999.0,-99.9,30.06,NNE,33,0.0,-999.0,-999,-99.99,,,-99.99,,2013-08-24 02:03:00,
2013-08-23 22:12:00,-999.0,-99.9,30.06,NNE,33,0.0,-999.0,-999,-99.99,,,-99.99,,2013-08-24 02:12:00,
2013-08-23 22:22:00,-999.0,-99.9,30.06,NNE,32,0.0,-999.0,-999,-99.99,,,-99.99,,2013-08-24 02:22:00,
2013-08-23 22:32:00,-999.0,-99.9,30.07,NNE,32,0.0,-999.0,-999,-99.99,,,-99.99,,2013-08-24 02:32:00,
2013-08-23 22:42:00,-999.0,-99.9,30.07,NNE,32,0.0,-999.0,-999,-99.99,,,-99.99,,2013-08-24 02:42:00,
2013-08-23 22:52:00,-999.0,-99.9,30.08,NNE,32,0.0,-999.0,-999,-99.99,,,-99.99,,2013-08-24 02:52:00,
2013-08-23 23:02:00,-999.0,-99.9,30.08,NNE,32,0.0,-999.0,-999,-99.99,,,-99.99,,2013-08-24 03:02:00,
2013-08-23 23:12:00,-999.0,-99.9,30.08,NNE,32,0.0,-999.0,-999,-99.99,,,-99.99,,2013-08-24 03:12:00,
2013-08-23 23:22:00,-999.0,-99.9,30.08,NNE,32,0.0,-999.0,-999,-99.99,,,-99.99,,2013-08-24 03:22:00,
2013-08-23 23:34:00,-999.0,-99.9,30.09,NNE,32,0.0,-999.0,-999,-99.99,,,-99.99,,2013-08-24 03:34:00,
2013-08-23 23:44:00,-999.0,-99.9,30.09,NNE,32,0.0,-999.0,-999,-99.99,,,-99.99,,2013-08-24 03:44:00,
2013-08-23 23:55:00,-999.0,-99.9,30.09,NNE,32,0.0,-999.0,-999,-99.99,,,-99.99,,2013-08-24 03:55:00,